This demonstration page uses our WeatherBlox Daily Observations layout. Learn more.

Left ArrowRight Arrow

Hourly Observations for February 20, 2020

Temp ( °F °C ) Dew Point ( °F °C ) Humidity (%) Winds ( mph kmh ) Pressure ( in mb ) Visibility ( mi km ) Precip ( " mm )
12:56 am 00:56 Clear 7 -13.9 3 -16.1 84 84 NNW 8 13 30.80 1043 10 16 0.00 0.00
1:56 am 01:56 Clear 4 -15.6 1 -17.2 88 88 NNW 6 9 30.82 1044 10 16 0.00 0.00
2:56 am 02:56 Clear 0 -17.8 -3 -19.4 87 87 NW 6 9 30.82 1044 10 16 0.00 0.00
3:56 am 03:56 Clear -3 -19.4 -6 -21.1 86 86 NW 8 13 30.83 1044 10 16 0.00 0.00
4:56 am 04:56 Clear -4 -20 -8 -22.2 83 83 NW 7 11 30.84 1044 10 16 0.00 0.00
5:56 am 05:56 Clear -4 -20 -8 -22.2 83 83 WNW 7 11 30.86 1045 10 16 0.00 0.00
6:56 am 06:56 Clear -5 -20.6 -9 -22.8 83 83 NW 8 13 30.87 1046 10 16 0.00 0.00
7:56 am 07:56 Sunny -3 -19.4 -6 -21.1 86 86 W 3 6 30.88 1046 10 16 0.00 0.00
8:56 am 08:56 Sunny 10 -12.2 4 -15.6 76 76 Calm 30.88 1046 10 16 0.00 0.00
9:56 am 09:56 Sunny 13 -10.6 5 -15 70 70 SW 7 11 30.88 1046 10 16 0.00 0.00
10:56 am 10:56 Sunny 19 -7.2 8 -13.3 62 62 SW 6 9 30.87 1045 10 16 0.00 0.00
11:56 am 11:56 Sunny 22 -5.6 10 -12.2 60 60 SW 12 19 30.85 1045 10 16 0.00 0.00
12:56 pm 12:56 Sunny 26 -3.3 15 -9.4 63 63 WSW 13 20 30.81 1043 10 16 0.00 0.00
1:56 pm 13:56 Sunny 30 -1.1 19 -7.2 64 64 W 10 17 30.78 1042 10 16 0.00 0.00
2:56 pm 14:56 Sunny 33 0.6 19 -7.2 56 56 WSW 10 17 30.76 1042 10 16 0.00 0.00
3:56 pm 15:56 Sunny 33 0.6 18 -7.8 54 54 W 12 19 30.75 1041 10 16 0.00 0.00
4:56 pm 16:56 Sunny 33 0.6 18 -7.8 54 54 SW 13 20 30.74 1041 10 16 0.00 0.00
5:56 pm 17:56 Sunny 30 -1.1 19 -7.2 64 64 SSW 12 19 30.73 1041 10 16 0.00 0.00
6:56 pm 18:56 Clear 25 -3.9 18 -7.8 75 75 SSW 7 11 30.74 1041 10 16 0.00 0.00
7:56 pm 19:56 Clear 23 -5 18 -7.8 81 81 SSW 9 15 30.73 1041 10 16 0.00 0.00
8:56 pm 20:56 Clear 23 -5 18 -7.8 81 81 SSW 14 22 30.71 1040 10 16 0.00 0.00
9:56 pm 21:56 Clear 22 -5.6 17 -8.3 82 82 SSW 15 24 30.70 1040 10 16 0.00 0.00
10:56 pm 22:56 Clear 21 -6.1 17 -8.3 85 85 SSW 13 20 30.68 1039 10 16 0.00 0.00
11:56 pm 23:56 Clear 21 -6.1 18 -7.8 88 88 SSW 13 20 30.65 1038 10 16 0.00 0.00

Powered by AerisWeather